sat.trackr.live / text

‹ back to catalog

STARLINK-6029

NORAD 56803 · 2023-078AN

PAYLOAD ACTIVE UNKNOWN

§ Identity

Operator
Country
US
Launch date
2023-05-31
Launch site
AFWTR
Launch vehicle
Mass (kg)
RCS (m²)

Purposes: comms

External: N2YO · Heavens-Above · Gunter

§ Orbital elements

Epoch: 2026-05-25T03:33:46.983744Z

Period
96.11 min
Inclination
69.9984°
Eccentricity
0.0003684
Mean motion
14.98320315 rev/d
Perigee alt
569.5 km
Apogee alt
574.6 km
Semi-major
6,950.2 km
B*
4.3499e-5
RAAN
151.6506°
Arg perigee
267.9893°
Mean anomaly
92.0844°
Rev number
16,413

§ Raw data

STARLINK-60291 56803U 23078AN  26145.14846046  .00000426  00000+0  43499-4 0  99972 56803  69.9984 151.6506 0003684 267.9893  92.0844 14.98320315164136

JSON: /api/v1/satellites/56803 · /tle

For live sub-satellite position, see the globe view (requires WebGL).

§ Visibility from observer

Set your observer location to see the next 7 days of passes ≥ 10°. The values pass through the URL so the page stays shareable.

No JS? Fill the form by hand. The geolocation button needs JavaScript.